TimePST,TemperatureF,Dew PointF,Humidity,Sea Level PressureIn,VisibilityMPH,Wind Direction,Wind SpeedMPH,Gust SpeedMPH,PrecipitationIn,Events,Conditions,WindDirDegrees,DateUTC
12:53 AM,15.1,8.1,74,29.91,10.0,WSW,5.8,-,0.00,,Overcast,250,2014-02-07 08:53:00
1:20 AM,15.1,8.1,74,29.85,2.5,West,5.8,-,0.00,Snow,Light Snow,260,2014-02-07 09:20:00
1:27 AM,15.1,8.1,74,29.85,3.0,West,4.6,-,0.01,Snow,Light Snow,260,2014-02-07 09:27:00
1:48 AM,14.0,8.6,79,29.86,2.5,West,5.8,-,0.01,Snow,Light Snow,270,2014-02-07 09:48:00
1:53 AM,14.0,9.0,80,29.92,3.0,West,5.8,-,0.01,Snow,Light Snow,270,2014-02-07 09:53:00
2:25 AM,9.0,5.0,84,29.86,10.0,WNW,5.8,-,0.00,,Scattered Clouds,290,2014-02-07 10:25:00
2:53 AM,10.9,6.1,81,29.93,10.0,WNW,5.8,-,0.00,,Mostly Cloudy,290,2014-02-07 10:53:00
3:53 AM,8.1,1.9,76,29.95,10.0,WSW,4.6,-,N/A,,Clear,250,2014-02-07 11:53:00
4:53 AM,5.0,-0.0,80,29.97,10.0,WNW,6.9,-,N/A,,Clear,290,2014-02-07 12:53:00
5:53 AM,1.0,-4.0,79,29.99,10.0,WNW,6.9,-,N/A,,Clear,290,2014-02-07 13:53:00
6:53 AM,-0.0,-5.1,79,30.01,10.0,WNW,4.6,-,N/A,,Clear,290,2014-02-07 14:53:00
7:53 AM,-4.0,-9.0,79,30.04,10.0,WNW,4.6,-,N/A,,Clear,290,2014-02-07 15:53:00
8:53 AM,3.9,-2.9,73,30.06,10.0,WNW,3.5,-,N/A,,Clear,300,2014-02-07 16:53:00
9:53 AM,10.0,1.9,70,30.06,10.0,Calm,Calm,-,N/A,,Clear,0,2014-02-07 17:53:00
10:53 AM,12.9,3.9,67,30.06,10.0,Calm,Calm,-,N/A,,Clear,0,2014-02-07 18:53:00
11:53 AM,19.0,5.0,54,30.05,10.0,ENE,3.5,-,N/A,,Clear,60,2014-02-07 19:53:00
12:53 PM,19.0,8.1,62,30.04,10.0,Calm,Calm,-,N/A,,Clear,0,2014-02-07 20:53:00
1:53 PM,19.9,7.0,57,30.02,10.0,Calm,Calm,-,N/A,,Clear,0,2014-02-07 21:53:00
2:53 PM,19.9,8.1,60,30.02,10.0,Calm,Calm,-,N/A,,Partly Cloudy,0,2014-02-07 22:53:00
3:53 PM,19.9,8.1,60,30.02,10.0,West,4.6,-,N/A,,Overcast,260,2014-02-07 23:53:00
4:53 PM,19.9,9.0,62,30.01,10.0,WSW,5.8,-,N/A,,Overcast,250,2014-02-08 00:53:00
5:53 PM,19.9,8.1,60,30.01,10.0,WSW,6.9,-,N/A,,Overcast,250,2014-02-08 01:53:00
6:53 PM,19.9,10.0,65,30.00,10.0,NNE,3.5,-,N/A,,Overcast,30,2014-02-08 02:53:00
7:53 PM,19.0,10.9,71,29.98,4.0,West,3.5,-,0.00,Snow,Light Snow,260,2014-02-08 03:53:00
8:05 PM,19.0,10.9,71,29.91,2.5,WSW,3.5,-,0.00,Snow,Light Snow,250,2014-02-08 04:05:00
8:29 PM,18.0,12.9,81,29.90,1.5,SW,3.5,-,0.00,Snow,Light Snow,230,2014-02-08 04:29:00
8:53 PM,19.9,14.0,78,29.97,1.2,North,8.1,-,0.01,Snow,Light Snow,10,2014-02-08 04:53:00
9:25 PM,19.0,12.9,77,29.90,1.5,North,8.1,-,0.01,Snow,Light Snow,350,2014-02-08 05:25:00
9:53 PM,19.9,12.9,74,29.97,2.0,North,6.9,-,0.02,Snow,Light Snow,360,2014-02-08 05:53:00
10:01 PM,19.0,12.9,77,29.91,3.0,NNW,8.1,-,0.00,Snow,Light Snow,340,2014-02-08 06:01:00
10:40 PM,19.0,12.0,74,29.92,2.0,North,9.2,-,0.00,Snow,Light Snow,360,2014-02-08 06:40:00
10:53 PM,19.0,12.9,77,29.98,1.8,NNW,6.9,-,0.00,Snow,Light Snow,340,2014-02-08 06:53:00
11:05 PM,19.0,12.9,77,29.92,2.5,NNW,9.2,-,0.01,Snow,Light Snow,340,2014-02-08 07:05:00
11:12 PM,19.0,12.0,74,29.92,4.0,NNW,9.2,-,0.01,Snow,Light Snow,340,2014-02-08 07:12:00
11:29 PM,19.0,12.9,77,29.92,3.0,NNW,8.1,-,0.01,Snow,Light Snow,330,2014-02-08 07:29:00
11:53 PM,19.0,14.0,81,29.98,4.0,West,5.8,-,0.01,Snow,Light Snow,270,2014-02-08 07:53:00